Weather in Ålesund

Norway     62°28′22″N   6°09′28″E
temp.,
°C
wind,
m/s
gust,
m/s
humid.,
%
clouds,
%
prec.,
mm/h
press.,
hPa
HPBL,
m
22 october, fri
fri2223:00+7wnw141460100 1.7 9862013
02:00+7wnw151565100 3.6 9861900
05:00+7wnw131468100 2.2 9861691
08:00+8wnw131369100 5.3 9871722
11:00+8nw131468100 2.8 9901656
14:00+8nnw151669100 4.2 9961790
17:00+8nnw141570100 2.1 10011677
20:00+8nnw131365100 4.2 10051740
23 october, sat
sat2323:00+8nnw10116274 2.2 10091546
02:00+8nw896198 4.1 10121306
05:00+7nw556190 1.3 10141030
08:00+7ssw2363100 2.4 1016799
11:00+6s5476100 0.2 1018368
14:00+7sse546870 0.2 1018438
17:00+7sse4463100 0.0 1017433
20:00+6se5461100 0.0 1016316
24 october, sun
sun2423:00+6se6564100 0.1 1014274
02:00+7sse6664100 0.2 1012305
05:00+9sse7766100 0.3 1009252
08:00+9sse6765100 0.3 1008219
11:00+10sse7766100 0.0 1007221
14:00+10sse7769100 0.0 1006240
17:00+10sse6767100 0.0 1005242
20:00+10sse81070100 0.0 1004317
25 october, mon
mon2523:00+10sse8107397 0.0 1004312
02:00+10sse887996 0.6 1004207
05:00+10sse6675100 0.1 1002217
08:00+10sse6779100 0.3 1001213
11:00+10sse787758 0.1 1001257
14:00+10s5778100 0.4 1002440
17:00+9s568030 0.8 1003406
20:00+9sse567885 1.4 1003318
26 october, tue
tue2623:00+9s667648 0.1 1004417
02:00+8s568084 0.1 1004350
05:00+8s7982100 1.1 1003796
08:00+8s71080100 2.4 1004813
11:00+8s798095 0.2 1005591
14:00+8sse778491 0.3 1005318
17:00+9sse6681100 0.0 1004284
20:00+9se6777100 0.1 1002252